This is the latest recevied weather packets stored in our database for station/object N7CEE-2. If no packets are shown the sender has not sent any weather packets the latest 10 day(s).
| Time | Temp. | Humidity | Pressure | Rain* | Wind** | Luminosity | Snow |
|---|---|---|---|---|---|---|---|
| 1777562568 | 23.89° C | 24% | 1012.9 hPa | 0 mm | - | 411 W/m² | - |
| 1777562266 | 23.33° C | 26% | 1013.1 hPa | 0 mm | - | 402 W/m² | - |
| 1777561963 | 23.33° C | 26% | 1013.1 hPa | 0 mm | - | 375 W/m² | - |
| 1777561661 | 22.22° C | 27% | 1013.1 hPa | 0 mm | - | 353 W/m² | - |
| 1777561356 | 22.78° C | 26% | 1013.2 hPa | 0 mm | - | 332 W/m² | - |
| 1777561052 | 22.22° C | 26% | 1013.2 hPa | 0 mm | - | 327 W/m² | - |
| 1777560747 | 22.22° C | 28% | 1013.2 hPa | 0 mm | - | 292 W/m² | - |
| 1777560444 | 22.22° C | 27% | 1013.1 hPa | 0 mm | - | 270 W/m² | - |
| 1777560142 | 21.67° C | 28% | 1013.1 hPa | 0 mm | - | 248 W/m² | - |
| 1777559838 | 21.67° C | 28% | 1013.1 hPa | 0 mm | - | 231 W/m² | - |
| 1777559534 | 21.67° C | 29% | 1013.2 hPa | 0 mm | - | 209 W/m² | - |
| 1777559231 | 21.67° C | 29% | 1013 hPa | 0 mm | - | 188 W/m² | - |
| 1777558926 | 21.11° C | 31% | 1013.1 hPa | 0 mm | - | 168 W/m² | - |
| 1777558622 | 21.11° C | 29% | 1012.8 hPa | 0 mm | - | 156 W/m² | - |
| 1777558318 | 20.56° C | 31% | 1013.1 hPa | 0 mm | - | 138 W/m² | - |
| 1777558015 | 20° C | 32% | 1012.8 hPa | 0 mm | - | 121 W/m² | - |
| 1777557711 | 19.44° C | 33% | 1012.9 hPa | 0 mm | - | 108 W/m² | - |
| 1777557408 | 19.44° C | 32% | 1013.1 hPa | 0 mm | - | 97 W/m² | - |
| 1777557104 | 18.89° C | 33% | 1012.9 hPa | 0 mm | - | 84 W/m² | - |
| 1777556799 | 18.89° C | 34% | 1012.9 hPa | 0 mm | - | 72 W/m² | - |
| 1777556497 | 18.89° C | 34% | 1012.9 hPa | 0 mm | - | 60 W/m² | - |
| 1777556196 | 18.33° C | 34% | 1012.8 hPa | 0 mm | - | 49 W/m² | - |
| 1777555892 | 17.78° C | 35% | 1012.8 hPa | 0 mm | - | 43 W/m² | - |
| 1777555588 | 16.67° C | 37% | 1012.9 hPa | 0 mm | - | 38 W/m² | - |
| 1777555285 | 16.11° C | 38% | 1012.8 hPa | 0 mm | - | 34 W/m² | - |
* Rain latest hour (hover to see other rain measurements)
** Current wind speed in m/s (hover to see current wind gust speed)